Regional Weather Roundup
Issued by NWS

Home | Current Version | Previous Version | Graphics & Text | Print | Product List | Glossary On
Versions: 1 2 3 4 5 6 7 8 9 10 11 12 13 14 15 16 17 18 19 20 21 22 23 24 25 26 27 28 29 30 31 32 33 34 35 36 37 38 39 40 41 42 43 44 45 46 47 48 49 50
000
ASUS43 KMPX 030410
RWRMN
WEATHER ROUNDUP FOR MINNESOTA
NATIONAL WEATHER SERVICE TWIN CITIES/CHANHASSEN MN
1100 PM CDT SUN AUG 02 2015


NOTE: "FAIR" INDICATES FEW OR NO CLOUDS BELOW 12,000 FEET WITH NO
SIGNIFICANT WEATHER AND/OR OBSTRUCTIONS TO VISIBILITY. N/A MEANS
CURRENT SKY AND/OR WEATHER CONDITIONS ARE NOT AVAILABLE.

MNZ060>063-068>070-030500-
   Twin Cities Metro

CITY           SKY/WX    TMP DP  RH WIND       PRES   REMARKS
TWIN CITIES    CLEAR     70  51  51 NW8       29.83R
ST PAUL        CLEAR     69  51  52 NW10      29.82R
CRYSTAL        CLEAR     68  51  54 NW8       29.81R
BLAINE         CLEAR     68  52  56 NW6       29.82R
LAKEVILLE      CLEAR     64  54  68 NW3       29.83R
EDEN PRAIRIE   CLEAR     70  51  51 NW5       29.83R
SOUTH ST PAUL  CLEAR     71  48  44 NW8       29.81R
LAKE ELMO      FAIR      66  52  59 NW5       29.83R
$$
MNZ001>005-007-008-013>017-022>024-027-028-030500-
   Northwest Minnesota

CITY           SKY/WX    TMP DP  RH WIND       PRES   REMARKS
BEMIDJI        CLEAR     53  44  71 W5        29.83R
HALLOCK        CLEAR     59  48  67 NW5       29.84R
ROSEAU         CLEAR     59  48  67 W6        29.82R
WARROAD        MOCLDY    61  46  59 W8        29.81R
THIEF RVR FALL CLEAR     55  50  82 CALM      29.85R
CROOKSTON      CLEAR     57  52  82 NW3       29.86R
FOSSTON        PTCLDY    54  46  76 CALM      29.85S
DETROIT LAKES  CLEAR     63  50  63 NW8       29.88R
MOORHEAD       CLEAR     57  52  82 W7        29.87R
PARK RAPIDS    CLEAR     58  49  72 NW5       29.84R
MAHNOMEN       FAIR      57  53  84 W7        29.85R
$$
MNZ006-009>011-018-025>026-030500-
   North Central Minnesota

CITY           SKY/WX    TMP DP  RH WIND       PRES   REMARKS
BAUDETTE       MOCLDY    61  46  57 W9        29.78S
FLAG ISLAND    CLOUDY    64  50  59 NW17      29.76F
INTL FALLS     CLOUDY    60  48  64 W5        29.75F
WASKISH        CLEAR     64  48  55 W10G17    29.80S
BIG FORK       PTCLDY    61  45  55 CALM      29.79S
LONGVILLE      CLEAR     63  46  55 W3        29.82R
GRAND RAPIDS   CLEAR     63  45  51 NW10      29.80S
CRANE LAKE     CLOUDY    54  52  94 CALM      29.76S
ORR            CLOUDY    63  45  51 NW7       29.74S
COOK           CLOUDY    61  48  63 W5        29.77S
WALKER         FAIR      54  48  80 W3        29.83R
$$
MNZ012-019>021-037-030500-
   Northeast Minnesota

CITY           SKY/WX    TMP DP  RH WIND       PRES   REMARKS
DULUTH         MOCLDY    64  48  56 NW10      29.76S
ELY            MOCLDY    59  46  63 CALM      29.75S
HIBBING        CLOUDY    64  46  52 W12       29.77S
EVELETH        PTCLDY    63  45  51 NW6       29.78R
DULUTH HARBOR  MOCLDY    66  54  63 W10       29.75S
TWO HARBORS    MOCLDY    63  52  67 CALM      29.73R
SILVER BAY     CLEAR     55  48  76 CALM      29.72S
GRAND MARAIS     N/A     57  46  66 VRB3      29.67F
G MARAIS ARPRT CLEAR    N/A N/A N/A NW7       29.71F
$$
MNZ029>031-032-039>041-046>048-054>057-064-030500-
   West Central Minnesota

CITY           SKY/WX    TMP DP  RH WIND       PRES   REMARKS
FERGUS FALLS   CLEAR     61  52  72 CALM      29.87R
WHEATON        CLEAR     57  52  82 W3        29.91R
MORRIS         CLEAR     59  52  77 NW5       29.89R
ALEXANDRIA     CLEAR     62  51  67 W5        29.89R
ELBOW LAKE     FAIR      61  50  68 W3        29.88R
WADENA         CLEAR     57  48  72 W5        29.85R
GLENWOOD       CLEAR     61  54  77 W5        29.89R
APPLETON       CLEAR     61  54  77 NW5       29.90R
BENSON         CLEAR     57  52  82 N6        29.90R
ORTONVILLE     CLEAR     64  54  68 NW3       29.91R
MADISON        CLEAR     64  55  72 NW6       29.91R
WILLMAR        FAIR      61  57  88 W6        29.90R
$$
MNZ033>034-036-042>043-049>051-058-059-030500-
   Central Minnesota

CITY           SKY/WX    TMP DP  RH WIND       PRES   REMARKS
ST CLOUD       CLEAR     63  50  62 NW7       29.85R
SAUK CENTRE    FAIR      58  53  83 SW3       29.88R
PAYNESVILLE    CLEAR     57  52  84 SW5       29.88R
AITKIN         CLEAR     61  48  63 W3        29.81R
PINE RIVER     CLEAR     61  48  63 CALM      29.87R
BRAINERD       CLEAR     64  48  56 W6        29.83S
STAPLES        CLEAR     55  46  71 W3        29.85R
LONG PRAIRIE   FAIR      55  52  88 CALM      29.88R
LITTLE FALLS   CLEAR     57  46  67 CALM      29.85R
LITCHFIELD     CLEAR     64  54  68 NW7       29.88R
BUFFALO        CLEAR     67  51  56 NW6       29.86R
MAPLE LAKE     CLEAR     64  55  72 NW5       29.86R
$$
MNZ037-044-045-052-053-030500-
   East Central Minnesota

CITY           SKY/WX    TMP DP  RH WIND       PRES   REMARKS
PRINCETON      CLEAR     63  52  67 W6        29.84R
MORA           CLEAR     59  50  72 W3        29.84R
CAMBRIDGE      CLEAR     64  50  59 NW3       29.81R
RUSH CITY      PTCLDY    58  51  77 CALM      29.82R
MOOSE LAKE     CLEAR     54  50  87 W6        29.79R
HINCKLEY       FAIR      61  50  67 W3        29.81R
CLOQUET        PTCLDY    63  45  51 W7        29.78R
MCGREGOR       CLEAR     63  46  55 W6        29.81R
$$
MNZ071>073-080-081-089-090-097-098-030500-
   Southwest Minnesota

CITY           SKY/WX    TMP DP  RH WIND       PRES   REMARKS
MONTEVIDEO     CLEAR     63  52  67 N5        29.92R
GRANITE FALLS  CLEAR     60  56  87 NW6       29.91R
CANBY          CLEAR     63  57  82 W5        29.92R
MARSHALL       CLEAR     61  54  77 NW6       29.92R
REDWOOD FALLS  CLEAR     67  58  72 NW7       29.88R
OLIVIA         CLEAR     59  54  82 NW5       29.88R
PIPESTONE      CLEAR     66  57  72 CALM      29.93S
WINDOM         CLEAR     63  57  82 NW9       29.90S
WORTHINGTON    CLEAR     63  55  77 NW5       29.92R
JACKSON        CLEAR     64  59  82 NW7       29.91R
TRACY          CLEAR     66  59  77 NW5       29.91R
SLAYTON        CLEAR     62  58  88 CALM      29.93R
$$
MNZ065>067-074>077-082>085-091>093-030500-
   South Central Minnesota

CITY           SKY/WX    TMP DP  RH WIND       PRES   REMARKS
MANKATO        CLEAR     66  54  63 NW7       29.86R
NEW ULM        CLEAR     63  57  82 NW3       29.88R
ST JAMES         N/A     63  59  88 W7        29.89R
FAIRMONT       CLEAR     64  54  68 NW6       29.88R
GLENCOE        CLEAR     64  56  75 W7        29.85R
FARIBAULT      CLEAR     64  55  72 W5        29.85R
OWATONNA       CLEAR     63  55  77 W5        29.86R
WASECA         CLEAR     61  55  82 CALM      29.88R
ALBERT LEA     CLEAR     66  57  72 NW3       29.86
$$
MNZ078>079-086>088-094>096-030500-
   Southeast Minnesota

CITY           SKY/WX    TMP DP  RH WIND       PRES   REMARKS
ROCHESTER      CLEAR     66  58  75 NW12      29.84R
RED WING       CLEAR     70  54  56 N6        29.80R
STANTON        CLEAR     64  56  75 CALM      29.82R
DODGE CENTER   CLEAR     66  55  68 NW8       29.85R
WINONA         PTCLDY    73  61  64 NW10      29.79R
AUSTIN         CLEAR     66  57  72 NW9       29.85R
PRESTON        CLEAR     66  58  73 NW8       29.84R
$$
ABBREVIATIONS USED IN REMARKS
   TC - TEMPERATURES IN CELSIUS
  WCI - WIND CHILL INDEX
   HX - HEAT INDEX
  VSB - VISIBILITY
$$


USA.gov is the U.S. government's official web portal to all federal, state and local government web resources and services.